{"data":{"norad_id":43768,"epoch":"2026-05-25T02:36:53.489088Z","epoch_age_seconds":58823,"freshness":"FRESH","line1":"1 43768U 18099L   26145.10895242  .00004485  00000+0  24247-3 0  9996","line2":"2 43768  97.4311 193.6505 0005370  38.4715 321.6899 15.15172521408782","mean_motion":15.15172521,"eccentricity":0.000537,"inclination_deg":97.4311,"raan_deg":193.6505,"arg_perigee_deg":38.4715,"mean_anomaly_deg":321.6899,"bstar":0.00024247,"rev_number":40878,"period_min":95.038682397013,"perigee_km":516.75030691569,"apogee_km":524.15939456339,"semimajor_km":6898.5918507395,"source":"CELESTRAK","updated_at":"2026-05-25T13:37:55.894235Z"}}